Lake of the Ozarks Weather Center

Moon Phase Calendar



Lake of the Ozarks Water Level
Online Cameras

 


      

Current Conditions in Four Seasons
1/28/2022 9:55:03 PM

19°F
Feels Like 19
Clear
Humidity
45%
Pressure
30.56"
Wind
0.5 mph (SE)
Dew Point
3°F
UV Index
0/10 (Low)
Visibility
6 mi

Hourly Forecast

Date & Time Fri, Jan 28
9:00 PM
Fri, Jan 28
10:00 PM
Fri, Jan 28
11:00 PM
Sat, Jan 29
12:00 AM
Sat, Jan 29
1:00 AM
Sat, Jan 29
2:00 AM
Sat, Jan 29
3:00 AM
Sat, Jan 29
4:00 AM
Sat, Jan 29
5:00 AM
Sat, Jan 29
6:00 AM
Sat, Jan 29
7:00 AM
Sat, Jan 29
8:00 AM
Sat, Jan 29
9:00 AM
Sat, Jan 29
10:00 AM
Sat, Jan 29
11:00 AM
Sat, Jan 29
12:00 PM
Sat, Jan 29
1:00 PM
Sat, Jan 29
2:00 PM
Sat, Jan 29
3:00 PM
Sat, Jan 29
4:00 PM
Sat, Jan 29
5:00 PM
Sat, Jan 29
6:00 PM
Sat, Jan 29
7:00 PM
Sat, Jan 29
8:00 PM
Sat, Jan 29
9:00 PM
Sat, Jan 29
10:00 PM
Sat, Jan 29
11:00 PM
Sun, Jan 30
12:00 AM
Sun, Jan 30
1:00 AM
Sun, Jan 30
2:00 AM
Sun, Jan 30
3:00 AM
Sun, Jan 30
4:00 AM
Sun, Jan 30
5:00 AM
Sun, Jan 30
6:00 AM
Sun, Jan 30
7:00 AM
Sun, Jan 30
8:00 AM
Sun, Jan 30
9:00 AM
Sun, Jan 30
10:00 AM
Sun, Jan 30
11:00 AM
Sun, Jan 30
12:00 PM
Sun, Jan 30
1:00 PM
Sun, Jan 30
2:00 PM
Sun, Jan 30
3:00 PM
Sun, Jan 30
4:00 PM
Sun, Jan 30
5:00 PM
Sun, Jan 30
6:00 PM
Sun, Jan 30
7:00 PM
Sun, Jan 30
8:00 PM
Condition
Clear

Clear

Clear

Clear

Clear

Clear

Clear

Clear

Clear

Clouds

Clouds

Clouds

Clouds

Clouds

Clouds

Clouds

Clouds

Clouds

Clouds

Clouds

Clouds

Clouds

Clear

Clear

Clear

Clear

Clear

Clear

Clear

Clear

Clear

Clear

Clouds

Clouds

Clear

Clear

Clear

Clear

Clear

Clear

Clouds

Clouds

Clouds

Clouds

Clouds

Clouds

Clouds

Clouds
Temperature 19°F19°F19°F20°F20°F20°F21°F21°F21°F23°F23°F25°F30°F36°F41°F45°F48°F50°F51°F50°F45°F38°F36°F36°F36°F34°F33°F32°F32°F31°F31°F30°F29°F27°F27°F28°F33°F37°F41°F44°F46°F47°F48°F47°F42°F38°F37°F37°F
Feels Like 19°F19°F19°F20°F15°F15°F16°F16°F16°F17°F18°F19°F23°F29°F35°F39°F43°F46°F48°F46°F41°F33°F31°F30°F29°F28°F27°F26°F26°F25°F25°F24°F23°F22°F21°F23°F28°F33°F37°F41°F44°F46°F47°F47°F42°F38°F37°F37°F
Cloudiness 2%2%2%2%1%0%0%1%9%24%100%100%100%77%62%56%15%12%23%22%19%16%0%0%0%0%0%1%6%7%9%10%11%17%10%7%6%5%5%5%23%61%48%43%54%62%100%100%
Visibility 6 mi6 mi6 mi6 mi6 mi6 mi6 mi6 mi6 mi6 mi6 mi6 mi6 mi6 mi6 mi6 mi6 mi6 mi6 mi6 mi6 mi6 mi6 mi6 mi6 mi6 mi6 mi6 mi6 mi6 mi6 mi6 mi6 mi6 mi6 mi6 mi6 mi6 mi6 mi6 mi6 mi6 mi6 mi6 mi6 mi6 mi6 mi6 mi
Precipitation 0%0%0%0%0%0%0%0%0%0%0%0%0%0%0%0%0%0%0%0%0%0%0%0%0%0%0%0%0%0%0%0%0%0%0%0%0%0%0%0%0%0%0%0%0%0%0%0%
Humidity 45%45%45%45%45%46%46%47%48%49%51%53%49%45%42%39%37%35%36%40%50%63%70%72%71%73%73%70%69%69%72%74%76%79%81%77%62%52%45%41%38%38%37%39%50%56%59%61%
Dew Point 3°F3°F3°F4°F4°F5°F2°F3°F4°F6°F7°F10°F12°F16°F19°F21°F22°F23°F25°F26°F27°F26°F26°F27°F27°F26°F24°F23°F22°F22°F22°F22°F22°F21°F21°F21°F21°F21°F21°F21°F22°F22°F22°F23°F25°F24°F24°F24°F
Pressure 30.53"30.56"30.53"30.5"30.45"30.39"30.36"30.33"30.3"30.3"30.3"30.27"30.24"30.21"30.15"30.12"30.06"30"29.97"29.97"29.97"29.97"29.97"29.94"29.94"29.94"29.94"29.94"29.97"29.97"30"30"30.03"30.06"30.09"30.12"30.12"30.12"30.12"30.09"30.06"30.06"30.03"30.03"30.03"30.06"30.06"30.09"
Wind Speed 1.7 mph0.5 mph2.2 mph2.8 mph3.3 mph3.7 mph3.6 mph3.6 mph3.9 mph4.1 mph4.3 mph4.8 mph6.9 mph8.9 mph10.1 mph10.4 mph10.8 mph10.6 mph9.8 mph8.9 mph7 mph5.9 mph6.3 mph7.2 mph7.6 mph6.9 mph6.1 mph6.3 mph6.6 mph6.2 mph5.9 mph5.8 mph5.4 mph4.7 mph4.6 mph4.1 mph6 mph5.9 mph5.4 mph5 mph4.3 mph3.6 mph3.4 mph2.3 mph1.6 mph1.7 mph1.3 mph1.5 mph
Wind
Direction
24°
NNE
146°
SE
183°
S
168°
SSE
183°
S
183°
S
186°
S
176°
S
185°
S
177°
S
179°
S
175°
S
187°
S
199°
SSW
207°
SSW
215°
SW
219°
SW
221°
SW
222°
SW
226°
SW
225°
SW
204°
SSW
197°
SSW
220°
SW
244°
WSW
261°
W
270°
W
278°
W
286°
WNW
294°
WNW
291°
WNW
295°
WNW
300°
WNW
292°
WNW
290°
WNW
292°
WNW
326°
NW
334°
NNW
335°
NNW
330°
NNW
325°
NW
322°
NW
308°
NW
294°
WNW
315°
NW
347°
NNW
45°
NE
78°
ENE

Daily Forecast

Date High Low Precip. Humidity
Today
Jan 28

Snow
30 °F
19 °F
20%
33%
Saturday
Jan 29

Clouds
51 °F
20 °F
0%
39%
Sunday
Jan 30

Clear
48 °F
27 °F
0%
41%
Monday
Jan 31

Clouds
57 °F
32 °F
0%
45%
Tuesday
Feb 1

Rain
52 °F
36 °F
22%
43%
Wednesday
Feb 2

Snow
32 °F
24 °F
100%
88%
Thursday
Feb 3

Snow
23 °F
4 °F
100%
89%
Friday
Feb 4

Clear
10 °F
-11 °F
0%
56%
Saturday
Feb 5

Clear
24 °F
-8 °F
0%
55%
Sunday
Feb 6

Snow
32 °F
14 °F
20%
64%
Monday
Feb 7

Clouds
16 °F
5 °F
0%
74%
Tuesday
Feb 8

Snow
15 °F
1 °F
27%
72%
Wednesday
Feb 9

Clouds
22 °F
-5 °F
0%
62%
Thursday
Feb 10

Clouds
33 °F
10 °F
5%
76%
Friday
Feb 11

Snow
31 °F
21 °F
20%
76%
Saturday
Feb 12

Snow
36 °F
19 °F
60%
90%

Temperature 8-14 Day Outlook



Precipitation 8-14 Day Outlook




Quick Links
Lake of the Ozarks News
Lake of the Ozarks Photos
Lake of the Ozarks Videos




About Us
Contact Us
Site Map
Search Site
Advertise With Us
   
Ozarks.USLakes.info
THE LAKE OF THE OZARKS WEBSITE

Copyright 2022, Lakes Online
Privacy    |    Legal